Regional Weather Roundup
Issued by NWS

Home | Current Version | Previous Version | Text Only | Print | Product List | Glossary On
Versions: 1 2 3 4 5 6 7 8 9 10 11 12 13 14 15 16 17 18 19 20 21 22 23 24 25 26 27 28 29 30 31 32 33 34 35 36 37 38 39 40 41 42 43 44 45 46 47 48 49 50
000
ASUS46 KSTO 230915
RWRCA

NORTHERN AND CENTRAL CA REGIONAL WEATHER ROUNDUP
NATIONAL WEATHER SERVICE SACRAMENTO CA
200 AM PDT SAT JUL 23 2016

NOTE: FAIR INDICATES FEW OR NO CLOUDS BELOW 12,000 FEET WITH NO
SIGNIFICANT WEATHER AND/OR OBSTRUCTIONS TO VISIBILITY.

CAZ001-003-231000-
NORTHWEST AREA

CITY           SKY/WX    TMP DP  RH WIND       PRES   REMARKS
CRESCENT CITY  CLEAR     54  52  93 CALM      30.16F
UKIAH          CLEAR     63  49  60 CALM      30.03F
$$

CAZ006-505>513-231000-
BAY AREA

CITY           SKY/WX    TMP DP  RH WIND       PRES   REMARKS
SANTA ROSA     CLEAR     55  50  83 CALM      29.97F
SAN RAFAEL     N/A       61  MM  MM MISG
NAPA           CLEAR     56  54  93 SW8       29.98F
CONCORD        CLEAR     65  48  54 CALM      29.97F
OAKLAND CITY   N/A       61  MM  MM MISG
OAKLAND        CLEAR     59  55  87 CALM      30.00F
SAN FRAN CITY  N/A       57  MM  79 MISG
SAN FRAN ARPT  CLEAR     57  50  77 W8        30.00F
LIVERMORE      CLEAR     64  47  53 CALM      29.98F
HAYWARD        CLEAR     61  52  72 NE3       29.99F
REDWOOD CITY   N/A       59  MM  73 MISG
MOFFETT ARPT   CLEAR     63  55  75 CALM      30.00F
SAN JOSE ARPT  CLEAR     63  54  72 CALM      30.00F
$$
CAZ034-037-514>518-231000-
CENTRAL COAST

CITY           SKY/WX    TMP DP  RH WIND       PRES   REMARKS
WATSONVILLE    CLEAR     55  51  86 CALM      30.01F
SALINAS        CLEAR     57  52  83 W7        30.01S
MONTEREY       CLEAR     55  50  83 CALM      30.02S
SAN LUIS OBISP CLEAR     57  51  80 SW3       29.93F
SANTA MARIA    CLOUDY    54  52  93 N5        29.94F
$$
CAZ015-016-231000-
NORTHERN SACRAMENTO VALLEY

CITY           SKY/WX    TMP DP  RH WIND       PRES   REMARKS
REDDING        CLEAR     72  47  40 N3        29.98F
RED BLUFF      CLEAR     72  41  32 N9        29.98F
OROVILLE       CLEAR     70  48  45 N3        29.96F
$$
CAZ016>018-231000-
SOUTHERN SACRAMENTO VALLEY

CITY           SKY/WX    TMP DP  RH WIND       PRES   REMARKS
AUBURN         CLEAR     64  37  36 CALM      30.03F
BEALE AFB      CLEAR     69  37  31 CALM      29.92F
LINCOLN        FAIR      63  41  45 CALM      29.93F
MARYSVILLE     CLEAR     65  48  54 CALM      29.94F
SAC INTL ARPT  CLEAR     64  52  64 SW3       29.93F
MATHER AIRPORT NOT AVBL
DOWNTOWN SAC   N/A       69  MM  MM MISG
SAC EXEC ARPT  CLEAR     63  51  65 S3        29.94F
VACAVILLE      CLEAR     64  49  57 S3        29.95F
TRAVIS AFB     CLEAR     65  52  63 SW12      29.93F
$$
CAZ019>021-231000-
SAN JOAQUIN VALLEY

CITY           SKY/WX    TMP DP  RH WIND       PRES   REMARKS
STOCKTON       CLEAR     67  47  48 NW7       29.93F
MODESTO        CLEAR     72  47  40 N3        29.93F
MERCED         CLEAR     65  50  58 CALM      29.93F
FRESNO         PTCLDY    75  45  34 NW8       29.94F
HANFORD        CLEAR     71  47  42 NW9       29.94F
PORTERVILLE    CLEAR     66  53  63 S7        29.95F
BAKERSFIELD    CLEAR     76  47  35 NW3       29.95F
$$
CAZ011-012-071-231000-
NORTHERN MOUNTAINS

CITY           SKY/WX    TMP DP  RH WIND       PRES   REMARKS
YREKA          CLEAR     63  39  41 NW7       30.21F
MOUNT SHASTA   CLEAR     63  41  44 VRB3      30.22F
ALTURAS        CLEAR     57  35  43 CALM      30.25F
$$
CAZ011-012-071-231000-
SIERRA NEVADA MTNS

CITY           SKY/WX    TMP DP  RH WIND       PRES   REMARKS
BLUE CANYON    CLEAR     69   4   7 NE6       30.25F
TRUCKEE        CLEAR     43  28  56 CALM      30.34S
TAHOE VLY ARPT CLEAR     41  30  65 S3        30.33F
MAMMOTH LAKES    N/A     58  26  29 CALM      30.36F
$$




USA.gov is the U.S. government's official web portal to all federal, state and local government web resources and services.